[[{"header":{"parameterUnit":"m.s-1","parameterCategory":1,"la1":30.2992,"la2":30.254,"lo1":-89.0895,"lo2":-89.0443,"dy":0.0025,"dx":0.0025,"nx":19,"ny":19,"refTime":"2026-03-22T03:00:00:Z","depth":0,"parameterNumber":2,"parameterNumberName":"U-component_of_WINDS"},"data":[0,0,0,3.3386,3.3391,3.3606,3.3607,3.389,3.3893,0,0,0,0,0,0,0,0,0,0,0,3.3324,3.3326,3.3386,3.3391,3.3606,3.3607,3.389,3.3893,0,0,0,0,0,0,0,0,0,0,0,3.3323,3.3326,3.3328,3.3392,3.3606,3.3607,3.3889,3.3725,0,0,0,0,0,0,0,0,0,0,3.3515,3.3459,3.3325,3.3328,3.3393,3.3605,3.3607,3.3717,3.3735,3.3796,0,3.3847,0,3.3874,3.3912,3.3913,0,0,0,3.339,3.3444,3.3499,3.3329,3.3395,3.3605,3.3509,3.3727,3.3748,3.382,3.3851,3.3862,3.3879,3.3914,3.3915,3.426,3.4261,0,0,3.3378,3.3365,3.3485,3.3513,3.3477,3.3502,3.3515,3.3739,3.3774,3.3852,3.3868,3.3884,3.3916,3.3918,3.4258,3.426,0,0,0,3.3345,3.3357,3.3407,3.3501,3.3539,3.3508,3.3524,3.3764,3.3781,3.3871,3.3887,3.3918,3.3921,3.4256,3.4259,3.4325,0,0,0,3.3338,3.3337,3.3402,3.3396,3.3535,3.3654,3.3543,3.3766,3.3791,3.3886,3.3918,3.3924,3.4255,3.4258,3.4319,3.4359,0,0,0,3.331,3.3334,3.3365,3.3394,3.3486,3.365,3.368,3.3771,3.3801,3.3913,3.3925,3.4253,3.4257,3.4314,3.4351,3.4445,0,0,0,3.3277,3.3423,3.3366,3.3536,3.3484,3.3689,3.3679,3.3833,3.3937,3.3919,3.4255,3.4259,3.4313,3.4345,3.4439,3.4521,3.4553,0,0,3.3453,3.3443,3.3544,3.35,3.371,3.3657,3.3879,3.3989,3.4014,3.4177,3.4186,3.4321,3.435,3.4444,3.4743,3.4769,0,0,0,3.3596,3.3668,3.3727,3.3824,3.3909,3.3987,3.4063,3.4104,3.4243,3.4094,3.4381,3.4399,3.4455,3.4494,3.4516,3.4565,3.4276,3.4276,3.4276,3.3827,3.3848,3.4017,3.4064,3.4159,3.4236,3.4316,3.4384,3.4381,3.4448,3.4497,3.4675,3.4721,3.4738,3.4788,3.4542,3.4542,3.4543,3.4543,3.4087,3.4193,3.4182,3.4341,3.4365,3.45,3.4582,3.4574,3.4705,3.4641,3.4691,3.4617,3.4765,3.4811,3.4548,3.4547,3.4547,3.4546,3.4546,3.424,3.4294,3.434,3.4482,3.459,3.4635,3.476,3.4778,3.4796,3.4845,3.4898,3.4897,3.4898,3.4869,3.487,3.4871,3.4871,3.4872,3.4872,3.438,3.4429,3.4531,3.4634,3.4698,3.4786,3.4866,3.4931,3.5008,3.5011,3.5012,3.5001,3.4775,3.4717,3.4882,3.488,3.4879,3.4878,3.4877,3.4635,3.458,3.4737,3.4801,3.4924,3.503,3.5051,3.5182,3.5239,3.5301,3.5281,3.511,3.5102,3.5085,3.5037,3.5275,3.5275,3.5275,3.5275,3.4763,3.476,3.4925,3.5026,3.5129,3.5163,3.5343,3.5408,3.5466,3.5503,3.5472,3.5411,3.5392,3.5395,3.5371,3.5327,3.5633,3.5633,3.5633,3.4921,3.4928,3.5076,3.5129,3.5227,3.5311,3.5481,3.5601,3.5657,3.5648,3.5533,3.5518,3.5419,3.5386,3.5373,3.5336,3.5255,0,0]},{"header":{"parameterUnit":"m.s-1","parameterCategory":1,"la1":30.2992,"la2":30.254,"lo1":-89.0895,"lo2":-89.0443,"dy":0.0025,"dx":0.0025,"nx":19,"ny":19,"refTime":"2026-03-22T03:00:00:Z","depth":0,"parameterNumber":3,"parameterNumberName":"V-component_of_WINDS"},"data":[0,0,0,1.5852,1.5854,1.5967,1.5968,1.6115,1.6116,0,0,0,0,0,0,0,0,0,0,0,1.5819,1.582,1.5852,1.5855,1.5967,1.5968,1.6114,1.6116,0,0,0,0,0,0,0,0,0,0,0,1.5819,1.582,1.5822,1.5855,1.5967,1.5968,1.6114,1.6028,0,0,0,0,0,0,0,0,0,0,1.5918,1.5889,1.582,1.5822,1.5856,1.5967,1.5968,1.6024,1.6034,1.6064,0,1.6092,0,1.6106,1.6126,1.6126,0,0,0,1.5854,1.5881,1.5911,1.5822,1.5857,1.5967,1.5916,1.6029,1.604,1.6077,1.6094,1.6099,1.6109,1.6127,1.6128,1.6306,1.6307,0,0,1.5848,1.5841,1.5903,1.5918,1.59,1.5913,1.592,1.6036,1.6054,1.6094,1.6103,1.6111,1.6128,1.6129,1.6305,1.6307,0,0,0,1.583,1.5836,1.5863,1.5912,1.5932,1.5916,1.5924,1.6049,1.6058,1.6104,1.6113,1.6129,1.6131,1.6305,1.6306,1.6342,0,0,0,1.5826,1.5826,1.586,1.5857,1.593,1.5991,1.5934,1.605,1.6063,1.6112,1.6129,1.6132,1.6304,1.6305,1.6339,1.636,0,0,0,1.5812,1.5824,1.5841,1.5856,1.5904,1.599,1.6006,1.6053,1.6068,1.6127,1.6132,1.6303,1.6305,1.6336,1.6356,1.6406,0,0,0,1.5794,1.5871,1.5841,1.5931,1.5903,1.601,1.6005,1.6085,1.6139,1.613,1.6304,1.6306,1.6335,1.6353,1.6403,1.6447,1.6464,0,0,1.5888,1.5882,1.5935,1.5912,1.6022,1.5994,1.611,1.6167,1.6179,1.6263,1.6268,1.634,1.6356,1.6405,1.6563,1.6577,0,0,0,1.5962,1.6001,1.6031,1.6082,1.6127,1.6167,1.6206,1.6227,1.6299,1.6221,1.6371,1.6381,1.641,1.6431,1.6443,1.6469,1.6315,1.6315,1.6315,1.6085,1.6096,1.6185,1.6209,1.6258,1.6298,1.6339,1.6374,1.6371,1.6407,1.6432,1.6526,1.6551,1.656,1.6587,1.6455,1.6456,1.6456,1.6456,1.6223,1.6279,1.6273,1.6357,1.6368,1.6439,1.6479,1.6475,1.6543,1.6508,1.6535,1.6497,1.6575,1.6599,1.6459,1.6458,1.6458,1.6457,1.6457,1.6306,1.6334,1.6358,1.6432,1.6489,1.6511,1.6576,1.6584,1.6592,1.6618,1.6646,1.6645,1.6647,1.663,1.6631,1.6631,1.6631,1.6631,1.6632,1.6382,1.6408,1.6461,1.6515,1.6548,1.6593,1.6633,1.6667,1.6706,1.6707,1.6707,1.6701,1.658,1.655,1.6637,1.6636,1.6635,1.6635,1.6634,1.652,1.649,1.6574,1.6607,1.667,1.6726,1.6734,1.6802,1.6831,1.6863,1.6851,1.676,1.6755,1.6746,1.6721,1.6847,1.6847,1.6847,1.6847,1.6591,1.6589,1.6676,1.6729,1.6782,1.6798,1.6892,1.6924,1.6952,1.6971,1.6953,1.6921,1.6911,1.6913,1.69,1.6877,1.704,1.704,1.704,1.6677,1.668,1.6759,1.6785,1.6835,1.6878,1.6967,1.7029,1.7055,1.7048,1.6986,1.6978,1.6925,1.6907,1.6901,1.6881,1.6839,0,0]}]]